Voltar ao catálogo

CICERO-1

AtivoCiênciaSSO
NORAD 42843·PAYLOAD·🇺🇸 United States
Este nome de satélite ainda não foi confirmado por fontes oficiais.

Lançado Jul 14, 2017 de Baikonur Cosmodrome

Loading…

Próximas Passagens (próximas 24 horas)

TLE

AtualizadoSource: Space-Track

Época: Sep 14, 2026, 03:45 UTC

1 42843U 17042U   26257.15662485  .00001493  00000-0  11943-3 0  9992
2 42843  97.4946  50.6422 0013371 130.4772 229.7621 15.01598550499976

Acompanhe CICERO-1 em tempo real com AllMySat

Download on the App Store